Location: Amsterdam
(30.7274°N, 84.4357°W)
Time: 19:06:17
(UTC+00:00)

Altair - Pass Details

Date: 07 August 2024
Orbit: 1501 x 1682 km, 47.2° (Epoch: 07 September)

Event Time Altitude Azimuth Distance (km) Brightness Sun altitude
Rises 17:37:56 0° 227° (SW) 4,901 10.3 75.3°
Reaches altitude 10° 17:41:07 10° 227° (SW) 3,900 9.9 75.4°
Maximum altitude 17:51:08 88° 140° (SE) 1,622 9.8 75.3°
Drops below altitude 10° 18:00:48 10° 51° (NE) 3,772 9.6 74.9°
Sets 18:03:49 0° 52° (NE) 4,735 9.9 74.7°
